Regional Weather Roundup
Issued by NWS

Home | Current Version | Previous Version | Text Only | Print | Product List | Glossary Off
Versions: 1 2 3 4 5 6 7 8 9 10 11 12 13 14 15 16 17 18 19 20 21 22 23 24 25 26 27

000
ASUS45 KBOU 200907
RWRCO

WEATHER ROUNDUP FOR COLORADO
NATIONAL WEATHER SERVICE DENVER/BOULDER CO
200 AM MST FRI JAN 20 2017

NOTE: "FAIR" INDICATES FEW OR NO CLOUDS BELOW 12000 FEET WITH NO
SIGNIFICANT WEATHER AND/OR OBSTRUCTIONS TO VISIBILITY.

COZ001>005-013-030-031-201000-
...NORTHWEST COLORADO...

CITY           SKY/WX    TMP DP  RH WIND       PRES   REMARKS
CRAIG          LGT SNOW  28  25  88 CALM      29.60S FOG
HAYDEN         CLOUDY    25  21  86 E7        29.59F WCI  17
MEEKER         LGT SNOW  29  27  92 CALM      29.58F VSB 1
MOUNT WERNER   NOT AVBL
STEAMBOAT SPGS CLOUDY    23  21  93 CALM      29.58F
WALDEN           N/A     23  19  86 S8        29.56F WCI  14
$$

COZ006>008-011-201000-
...WEST CENTRAL VALLEYS...

CITY           SKY/WX    TMP DP  RH WIND       PRES   REMARKS
GRAND JUNCTION FOG       31  31 100 CALM      29.61S VSB 1/2
MONTROSE       MOCLDY    31  31 100 CALM      29.62F
EAGLE          LGT SNOW  26  25  96 CALM      29.62S FOG
RIFLE          LGT SNOW  30  30 100 CALM      29.61F FOG
DELTA          CLOUDY    34  34  98 NE3       29.62F
NUCLA          FLURRIES  32  32 100 CALM      29.65S
$$

COZ017>023-064>068-201000-
...SOUTHWEST COLORADO...

CITY           SKY/WX    TMP DP  RH WIND       PRES   REMARKS
DURANGO        LGT SNOW  30  26  85 SW16      29.66R FOG     WCI  19
CORTEZ         CLOUDY    32  30  92 SW15      29.67S WCI  22
PAGOSA SPRINGS LGT SNOW  29  29 100 CALM      29.64F
TELLURIDE      LGT SNOW  25  24  96 CALM      29.61S
WOLF CREEK PAS CLOUDY    14  14 100 SW16G31   29.63F WCI  -2
$$

COZ009-010-012-014-032>034-037-058>063-201000-
...CENTRAL COLORADO...

CITY           SKY/WX    TMP DP  RH WIND       PRES   REMARKS
ASPEN          LGT SNOW  24  24 100 CALM      29.57F FOG
BUENA VISTA    CLOUDY    23  20  90 CALM      29.56F
COPPER MTN     LGT SNOW  19  14  79 MISG      29.56F
BERTHOUD PASS  NOT AVBL
COTTONWOOD PAS CLOUDY    25  23  93 CALM      29.55F FOG
GUNNISON       LGT SNOW  14  11  87 E3        29.64F FOG
KREMMLING      LGT SNOW  19  18  93 CALM      29.62F
LEADVILLE      CLOUDY    20  17  88 NE5       29.54F WCI  13
MONARCH PASS   CLOUDY    16  12  86 SW13G30   29.65F WCI   2
SALIDA         CLOUDY    30  20  64 SW14      29.62F WCI  20
SUNLIGHT       LGT SNOW  19  18  93 SW5       29.62S WCI  13
WILKERSON PASS HVY SNOW  19  16  86 W7        29.55S VSB 1/4 WCI  10
$$

COZ069>075-201000-
...SAN LUIS VALLEY/SANGRE DE CRISTO MOUNTAINS...

CITY           SKY/WX    TMP DP  RH WIND       PRES   REMARKS
ALAMOSA        CLOUDY    15  14  95 E5        29.63F WCI   8
LA VETA PASS   CLOUDY    21  19  93 NE29G48   29.52F FOG     WCI   3
SAGUACHE       FLURRIES  23  21  93 CALM      29.64F
$$

COZ035-036-038>040-201000-
...NORTHERN COLORADO FRONT RANGE...

CITY           SKY/WX    TMP DP  RH WIND       PRES   REMARKS
DENVER INTL AP MOCLDY    32  22  66 SW6       29.47S WCI  26
DMNS CITY PARK   N/A     31  24  73 SW3       29.48R
AURORA         MOCLDY    30  23  74 SW5       29.48R WCI  25
FRONT RANGE AP FAIR      34  25  69 SW6       29.48R WCI  29
ERIE MUNI ARPT FAIR      28  25  89 SW3       29.48S
BOULDER MUN AP CLOUDY    34  25  69 CALM      29.47S
CENTENNIAL     FAIR      35  20  54 W8        29.47S WCI  29
BROOMFIELD     FAIR      36  23  60 SW5       29.47S
FORT COLLINS   FAIR      30  21  69 CALM      29.48S
LONGMONT       CLOUDY    32  26  79 CALM      29.49S
$$

COZ041-046-047-076>085-087-088-201000-
...PIKES PEAK/PALMER DIVIDE AND SOUTHERN FOOTHILLS...

CITY           SKY/WX    TMP DP  RH WIND       PRES   REMARKS
COLO. SPRINGS  CLOUDY    37  19  48 CALM      29.47F
A. F. ACADEMY  CLOUDY    38  26  61 NW9G18    29.47S
SCHRIEVER AFB  NOT AVBL
ELLICOTT       MOCLDY   N/A N/A N/A CALM      29.46S
FALCON         CLOUDY    37  23  55 SE6       29.48S
FORT CARSON    CLOUDY    37  21  52 SW5       29.48S
LIMON          FAIR      24  22  91 SW6       29.49R WCI  17
MONUMENT HILL  CLOUDY    32  23  69 W6        29.49S WCI  26
TRINIDAD       CLOUDY    38  27  64 N8        29.48S
$$

COZ042>045-048>051-090-091-201000-
...NORTHEAST COLORADO...

CITY           SKY/WX    TMP DP  RH WIND       PRES   REMARKS
GREELEY ARPT   FAIR      27  24  89 NW7       29.49S WCI  19
AKRON          FAIR      33  22  63 NE5       29.46F WCI  29
BURLINGTON     FAIR      27  25  92 W8        29.47S WCI  19
WRAY           NOT AVBL
STERLING       FAIR      23  21  93 CALM      29.47F
HOLYOKE        FAIR      25  21  86 W9        29.48R WCI  15
FORT MORGAN    FAIR      31  24  77 N6        29.47F WCI  25
$$

COZ086-089-092>099-201000-
...SOUTHEAST COLORADO...

CITY           SKY/WX    TMP DP  RH WIND       PRES   REMARKS
PUEBLO         CLOUDY    46  29  51 W14       29.46R
LA JUNTA       MOCLDY    29  26  89 S6        29.47F WCI  23
LAMAR          FOG       29  28  96 CALM      29.49S VSB 1/4
SPRINGFIELD      N/A     36  30  79 SW6       29.48S
$$




USA.gov is the U.S. government's official web portal to all federal, state and local government web resources and services.